DW1234 Weather Reports


Display with metric or nautical units.
time (UTC)temp
F
wind
direction
speed
MPH
gust
MPH
rain 1hr
in
rain 24hr
in
rain mn
in
humidity
%
barometer
mb
20180123054721 28 313 11.0 19.0 0.00 0.31 0.31 91 1011.4
20180123054214 28 319 12.0 19.0 0.00 0.31 0.31 91 1011.3
20180123053722 28 298 9.0 20.0 0.00 0.31 0.31 91 1011.2
20180123053213 28 312 9.0 20.0 0.00 0.31 0.31 91 1011.0
20180123052719 28 317 8.0 18.0 0.00 0.31 0.31 91 1010.8
20180123052210 28 348 10.0 19.0 0.00 0.31 0.31 91 1010.8
20180123051717 28 323 10.0 19.0 0.00 0.31 0.31 91 1010.6
20180123051217 28 331 9.0 18.0 0.00 0.31 0.31 91 1010.6
20180123050711 28 313 10.0 18.0 0.00 0.31 0.31 91 1010.7
20180123050217 28 343 9.0 21.0 0.00 0.31 0.31 91 1010.6
20180123045707 28 321 12.0 21.0 0.00 0.33 0.31 91 1010.6
20180123045220 28 325 11.0 19.0 0.00 0.33 0.31 91 1010.5
20180123044710 28 324 11.0 19.0 0.00 0.33 0.31 91 1010.4
20180123044217 28 308 8.0 19.0 0.00 0.33 0.31 91 1010.3
20180123043707 28 311 12.0 19.0 0.00 0.33 0.31 91 1010.2
20180123043215 28 333 9.0 21.0 0.00 0.33 0.31 91 1010.1
20180123042703 28 329 11.0 21.0 0.00 0.33 0.31 91 1010.0
20180123042214 28 312 11.0 21.0 0.00 0.33 0.31 91 1010.0
20180123041703 28 315 11.0 20.0 0.00 0.33 0.31 91 1010.0
20180123041216 28 302 7.0 21.0 0.00 0.33 0.31 91 1009.8
20180123040702 28 355 10.0 21.0 0.00 0.33 0.31 91 1009.7
20180123040214 28 338 10.0 24.0 0.00 0.33 0.31 91 1009.4
20180123035719 28 288 13.0 24.0 0.00 0.35 0.31 92 1009.4
20180123035211 28 338 10.0 23.0 0.00 0.35 0.31 92 1009.2
20180123034702 28 283 8.0 23.0 0.00 0.35 0.31 92 1009.0
20180123034212 28 355 8.0 20.0 0.00 0.35 0.31 92 1009.0
20180123033702 28 322 12.0 19.0 0.00 0.35 0.31 92 1009.0
20180123033213 28 325 11.0 23.0 0.00 0.35 0.31 92 1008.9
20180123032702 28 309 13.0 23.0 0.00 0.35 0.31 92 1008.7
20180123032217 28 325 9.0 19.0 0.00 0.35 0.31 92 1008.7
20180123031703 28 355 12.0 23.0 0.00 0.35 0.31 92 1008.4
20180123031211 28 297 14.0 23.0 0.00 0.35 0.31 92 1008.4
20180123030702 28 306 12.0 23.0 0.00 0.35 0.31 92 1008.4
20180123030215 28 309 9.0 22.0 0.00 0.35 0.31 92 1008.3
20180123025721 28 277 12.0 22.0 0.00 0.35 0.31 92 1008.2
20180123025209 28 329 9.0 23.0 0.00 0.35 0.31 92 1007.9
20180123024722 28 329 12.0 23.0 0.00 0.35 0.31 92 1007.8
20180123024210 28 327 9.0 17.0 0.00 0.35 0.31 92 1007.8
20180123023721 28 355 8.0 20.0 0.00 0.35 0.31 92 1007.8
20180123023209 28 325 11.0 20.0 0.00 0.35 0.31 92 1007.6
20180123022717 28 317 10.0 21.0 0.00 0.35 0.31 92 1007.6
20180123022205 28 315 9.0 17.0 0.00 0.35 0.31 92 1007.6
20180123021716 28 355 11.0 17.0 0.00 0.35 0.31 92 1007.3
20180123021223 28 317 11.0 17.0 0.00 0.35 0.31 92 1007.3
20180123020712 28 329 7.0 21.0 0.00 0.35 0.31 92 1007.2
20180123020220 28 317 12.0 21.0 0.00 0.35 0.31 92 1006.9
20180123015727 29 346 11.0 19.0 0.00 0.35 0.31 92 1006.9
20180123015211 29 332 10.0 19.0 0.00 0.35 0.31 92 1006.8
20180123014714 29 331 11.0 20.0 0.00 0.35 0.31 92 1006.7
20180123014220 29 312 8.0 25.0 0.00 0.35 0.31 92 1006.7
20180123013725 29 334 11.0 25.0 0.00 0.35 0.31 92 1006.7
20180123013227 29 306 8.0 22.0 0.00 0.35 0.31 92 1006.6
20180123012716 29 5 10.0 20.0 0.00 0.35 0.31 92 1006.4
20180123012220 29 322 10.0 22.0 0.00 0.35 0.31 92 1006.3
20180123011705 29 318 10.0 19.0 0.00 0.35 0.31 92 1006.3
20180123011213 29 350 10.0 19.0 0.00 0.35 0.31 92 1006.2
20180123010723 29 304 9.0 21.0 0.00 0.35 0.31 92 1006.0
20180123010208 29 315 9.0 21.0 0.00 0.35 0.31 92 1006.0
20180123005714 29 333 11.0 22.0 0.00 0.35 0.31 92 1005.7
20180123005220 29 355 11.0 22.0 0.00 0.35 0.31 92 1005.6
20180123004723 29 346 9.0 21.0 0.00 0.35 0.31 92 1005.5
20180123004226 29 336 8.0 28.0 0.00 0.35 0.31 92 1005.3
20180123003711 29 307 13.0 28.0 0.00 0.35 0.31 92 1005.0
20180123003218 29 341 10.0 26.0 0.00 0.35 0.31 92 1005.0
20180123002706 30 360 14.0 26.0 0.00 0.35 0.31 93 1004.7
20180123002218 29 331 12.0 27.0 0.00 0.35 0.31 93 1004.8
20180123001707 29 325 15.0 27.0 0.00 0.35 0.31 93 1004.4
20180123001220 29 326 12.0 27.0 0.00 0.35 0.31 93 1004.3
20180123000708 29 314 11.0 30.0 0.00 0.35 0.31 93 1004.2
20180123000217 29 313 14.0 30.0 0.00 0.35 0.31 93 1003.9
20180122235723 29 320 11.0 23.0 0.00 0.35 0.31 93 1003.9
20180122235216 29 333 9.0 25.0 0.00 0.35 0.31 93 1003.7
20180122234725 29 331 9.0 29.0 0.00 0.35 0.31 93 1003.6
20180122234211 29 348 10.0 22.0 0.00 0.35 0.31 93 1003.4
20180122233719 29 315 11.0 19.0 0.00 0.35 0.31 93 1003.2
20180122233211 29 335 9.0 22.0 0.00 0.35 0.31 93 1003.0
20180122232716 29 29 13.0 22.0 0.00 0.35 0.31 93 1002.9
20180122205227 32 5 7.0 26.0 0.00 0.34 0.30 95 997.9
20180122203715 32 341 13.0 22.0 0.01 0.34 0.30 95 997.5
20180122203215 32 360 12.0 20.0 0.01 0.34 0.30 95 997.4
20180122202717 32 348 8.0 17.0 0.01 0.34 0.30 95 997.3
20180122202229 32 40 7.0 19.0 0.02 0.34 0.30 95 997.2
20180122201717 32 341 11.0 20.0 0.02 0.34 0.30 95 997.2
20180122201220 32 312 12.0 20.0 0.02 0.34 0.30 95 997.0
20180122200724 32 338 10.0 24.0 0.02 0.34 0.30 95 996.8
20180122200224 32 38 10.0 24.0 0.02 0.34 0.30 95 996.7
20180122195730 32 338 11.0 24.0 0.02 0.35 0.30 95 996.5
20180122195215 32 329 9.0 28.0 0.03 0.35 0.30 95 996.4
20180122194720 32 17 10.0 28.0 0.02 0.34 0.29 95 996.3
20180122194226 32 16 9.0 25.0 0.02 0.34 0.29 95 996.2
20180122193732 32 350 11.0 25.0 0.02 0.34 0.29 95 996.2
20180122193220 32 336 12.0 20.0 0.02 0.34 0.29 95 996.0
20180122192724 32 34 10.0 19.0 0.02 0.34 0.29 95 996.1
20180122192228 32 319 7.0 19.0 0.02 0.33 0.28 95 995.9
20180122191715 32 317 10.0 18.0 0.02 0.33 0.28 95 995.8
20180122191218 32 304 10.0 18.0 0.02 0.33 0.28 95 995.9
20180122190725 32 35 8.0 18.0 0.02 0.33 0.28 95 995.9
20180122190224 32 12 7.0 18.0 0.03 0.33 0.28 95 995.9
20180122185731 32 5 10.0 18.0 0.03 0.33 0.28 95 995.9
20180122185214 32 11 8.0 21.0 0.02 0.32 0.27 95 995.9
20180122184721 32 26 10.0 21.0 0.03 0.32 0.27 95 996.0
20180122184212 32 332 12.0 21.0 0.03 0.32 0.27 95 996.0
20180122183720 32 326 12.0 19.0 0.03 0.32 0.27 95 995.9
20180122183225 33 328 10.0 20.0 0.03 0.32 0.27 95 995.8
20180122182727 33 51 9.0 20.0 0.03 0.32 0.27 95 995.7
20180122182213 33 319 8.0 19.0 0.02 0.31 0.26 95 995.6
20180122181721 33 349 9.0 19.0 0.03 0.31 0.26 95 995.6
20180122181228 33 325 11.0 20.0 0.03 0.31 0.26 95 995.6
20180122180730 33 348 10.0 20.0 0.03 0.31 0.26 95 995.7
20180122180230 33 360 7.0 18.0 0.02 0.30 0.25 95 995.7
20180122175715 33 51 9.0 18.0 0.03 0.30 0.25 95 995.7
20180122175220 33 333 7.0 19.0 0.03 0.30 0.25 95 995.7
20180122174727 33 5 11.0 19.0 0.02 0.29 0.24 95 995.8
20180122174214 33 355 8.0 16.0 0.02 0.29 0.24 95 995.8
20180122173717 33 340 4.0 17.0 0.02 0.29 0.24 95 995.7
20180122173221 33 5 8.0 17.0 0.02 0.29 0.24 95 995.8
20180122172723 33 343 6.0 16.0 0.02 0.29 0.24 95 995.8
20180122172230 33 11 8.0 16.0 0.03 0.29 0.24 95 995.7
20180122171713 33 327 9.0 16.0 0.02 0.28 0.23 95 995.6
20180122171218 33 336 7.0 17.0 0.02 0.28 0.23 95 995.6
20180122170724 33 35 8.0 20.0 0.03 0.28 0.23 95 995.6
20180122170226 33 335 10.0 20.0 0.03 0.28 0.23 95 995.5
20180122165714 33 333 7.0 16.0 0.02 0.27 0.22 95 995.5
20180122165220 33 346 9.0 16.0 0.02 0.27 0.22 95 995.5
20180122164723 33 23 7.0 19.0 0.02 0.27 0.22 95 995.4
20180122164230 33 333 11.0 19.0 0.03 0.27 0.22 95 995.3
20180122163714 33 341 9.0 21.0 0.03 0.27 0.22 95 995.4
20180122163220 33 15 9.0 21.0 0.03 0.27 0.22 95 995.1
20180122162723 33 23 8.0 22.0 0.03 0.26 0.21 95 995.2
20180122162255 33 346 11.0 22.0 0.03 0.26 0.21 95 995.2
20180122161713 33 327 6.0 20.0 0.03 0.26 0.21 95 995.2
20180122161219 33 22 8.0 20.0 0.04 0.26 0.21 95 995.2
20180122160724 33 45 7.0 14.0 0.03 0.25 0.20 95 995.3
20180122160229 33 339 7.0 12.0 0.03 0.25 0.20 95 995.4
20180122155712 33 13 5.0 11.0 0.04 0.25 0.20 95 995.3
20180122155218 33 329 6.0 10.0 0.04 0.25 0.20 95 995.3
20180122154723 33 326 6.0 12.0 0.04 0.25 0.20 95 995.1
20180122154227 33 335 6.0 12.0 0.03 0.24 0.19 95 995.1
20180122153714 33 355 7.0 12.0 0.04 0.24 0.19 95 995.0
20180122153219 33 5 7.0 12.0 0.03 0.23 0.18 95 994.9
20180122152723 33 5 5.0 11.0 0.03 0.23 0.18 95 995.0
20180122152227 33 5 5.0 11.0 0.03 0.23 0.18 95 995.0
20180122151730 33 346 4.0 10.0 0.04 0.23 0.18 95 995.0
20180122151220 33 34 7.0 11.0 0.03 0.22 0.17 95 995.0
20180122150723 33 360 5.0 11.0 0.03 0.22 0.17 95 995.1
20180122150224 33 340 5.0 10.0 0.03 0.22 0.17 95 995.3
20180122145726 33 24 4.0 11.0 0.02 0.21 0.16 95 995.3
20180122145231 33 24 5.0 11.0 0.02 0.21 0.16 95 995.3
20180122144716 33 355 3.0 8.0 0.02 0.21 0.16 95 995.2
20180122144220 33 344 3.0 8.0 0.03 0.21 0.16 95 995.3
20180122143720 33 339 3.0 8.0 0.02 0.20 0.15 95 995.3
20180122143226 33 28 5.0 10.0 0.02 0.20 0.15 95 995.2
20180122142728 33 19 6.0 10.0 0.03 0.20 0.15 95 995.2
20180122142212 33 14 5.0 12.0 0.03 0.20 0.15 95 995.1
20180122141722 33 22 4.0 13.0 0.02 0.19 0.14 95 995.1
20180122141227 33 355 5.0 13.0 0.03 0.19 0.14 95 995.1
20180122140709 33 9 4.0 9.0 0.03 0.19 0.14 95 995.2
20180122140214 33 360 3.0 9.0 0.03 0.19 0.14 95 995.2
20180122135722 33 325 4.0 9.0 0.03 0.19 0.14 95 995.1
20180122135209 33 335 3.0 7.0 0.04 0.19 0.14 95 995.2
20180122134718 33 327 4.0 7.0 0.04 0.19 0.14 95 995.2
20180122134222 33 355 4.0 10.0 0.03 0.18 0.13 95 995.2
20180122133730 33 31 5.0 13.0 0.04 0.18 0.13 95 995.0
20180122133215 33 5 5.0 13.0 0.04 0.18 0.13 95 994.9
20180122132724 33 36 5.0 8.0 0.04 0.17 0.12 95 994.9
20180122132228 33 23 5.0 9.0 0.04 0.17 0.12 95 995.2
20180122131714 33 62 4.0 15.0 0.04 0.17 0.12 95 994.8
20180122131218 33 324 8.0 17.0 0.04 0.16 0.11 95 993.5
20180122130724 33 360 9.0 16.0 0.05 0.16 0.11 95 993.6
20180122130228 33 32 10.0 16.0 0.06 0.16 0.11 95 994.5
20180122125714 33 17 9.0 16.0 0.06 0.16 0.11 95 994.9
20180122125218 34 42 8.0 12.0 0.05 0.15 0.10 95 995.0
20180122124722 34 11 6.0 11.0 0.06 0.15 0.10 95 995.3
20180122124227 34 31 7.0 14.0 0.06 0.15 0.10 95 995.6
20180122123715 34 80 6.0 14.0 0.05 0.14 0.09 95 995.5
20180122123218 34 13 7.0 12.0 0.05 0.14 0.09 95 995.6
20180122122722 34 360 7.0 14.0 0.04 0.13 0.08 95 995.6
20180122122225 34 21 7.0 14.0 0.04 0.13 0.08 95 995.5
20180122121713 34 46 7.0 11.0 0.03 0.12 0.07 95 995.4
20180122121220 34 46 7.0 13.0 0.03 0.12 0.07 95 995.3
20180122120726 34 22 7.0 14.0 0.02 0.11 0.06 95 995.3
20180122120226 34 34 10.0 19.0 0.01 0.10 0.05 95 995.1
20180122115712 35 360 8.0 19.0 0.01 0.10 0.05 95 995.2
20180122115216 35 25 9.0 18.0 0.00 0.09 0.04 95 995.3
20180122114719 35 13 9.0 15.0 0.00 0.09 0.04 95 995.4
20180122114226 35 30 10.0 16.0 0.00 0.09 0.04 95 995.6
20180122113714 35 5 10.0 20.0 0.00 0.09 0.04 95 995.6
20180122113218 36 22 9.0 20.0 0.00 0.09 0.04 95 995.7
20180122112720 36 61 11.0 20.0 0.00 0.09 0.04 95 995.8
20180122112223 36 38 11.0 17.0 0.00 0.09 0.04 95 996.2
20180122111727 36 15 6.0 9.0 0.00 0.09 0.04 96 996.8
20180122111215 36 30 1.0 8.0 0.00 0.09 0.04 96 997.0
20180122110722 36 32 1.0 9.0 0.00 0.09 0.04 96 997.1
20180122110222 36 43 3.0 11.0 0.00 0.09 0.04 96 997.0
20180122105727 36 43 6.0 12.0 0.00 0.09 0.04 96 996.7
20180122105216 36 360 7.0 14.0 0.00 0.09 0.04 96 996.7
20180122104720 36 44 6.0 14.0 0.00 0.09 0.04 96 996.5
20180122104225 36 32 7.0 15.0 0.00 0.09 0.04 96 996.4
20180122103729 36 53 8.0 15.0 0.00 0.09 0.04 96 996.5
20180122103214 36 19 7.0 13.0 0.00 0.09 0.04 96 996.4
20180122102723 36 22 3.0 14.0 0.00 0.09 0.04 96 996.4
20180122102226 36 21 4.0 14.0 0.00 0.09 0.04 96 996.7
20180122101710 36 11 5.0 13.0 0.00 0.09 0.04 96 996.7
20180122101216 36 23 7.0 13.0 0.00 0.09 0.04 96 996.5
20180122100722 36 34 7.0 14.0 0.00 0.09 0.04 96 996.4
20180122100223 36 360 7.0 14.0 0.00 0.09 0.04 96 996.4
20180122095711 36 19 8.0 15.0 0.00 0.09 0.04 96 996.3
20180122095219 36 32 9.0 15.0 0.00 0.09 0.04 96 996.5
20180122094725 36 36 6.0 11.0 0.00 0.09 0.04 96 996.5
20180122094230 36 21 5.0 16.0 0.00 0.09 0.04 96 996.7
20180122093714 36 37 7.0 16.0 0.00 0.09 0.04 96 996.7
20180122093218 36 32 7.0 14.0 0.00 0.09 0.04 96 996.7
20180122092721 36 38 8.0 12.0 0.00 0.09 0.04 96 996.8
20180122092226 36 43 5.0 8.0 0.00 0.09 0.04 96 997.3
20180122091731 36 47 5.0 9.0 0.00 0.09 0.04 96 997.4
20180122091215 36 10 4.0 10.0 0.00 0.09 0.04 96 997.5
20180122090727 36 49 4.0 12.0 0.00 0.09 0.04 96 997.4
20180122090227 36 24 6.0 12.0 0.00 0.09 0.04 96 997.4
20180122085713 36 18 6.0 8.0 0.00 0.09 0.04 96 997.8
20180122085216 36 20 4.0 7.0 0.00 0.09 0.04 96 997.8
20180122084722 36 340 1.0 10.0 0.00 0.09 0.04 96 997.7
20180122084227 36 11 5.0 17.0 0.00 0.09 0.04 96 997.2
20180122083712 36 49 9.0 18.0 0.00 0.09 0.04 96 997.0
20180122083217 36 5 6.0 19.0 0.00 0.09 0.04 96 996.7
20180122082725 36 34 9.0 19.0 0.00 0.09 0.04 96 996.7
20180122082213 36 49 9.0 21.0 0.00 0.09 0.04 96 996.5
20180122081722 35 61 11.0 21.0 0.00 0.09 0.04 96 996.1
20180122081227 35 34 10.0 20.0 0.00 0.09 0.04 96 996.4
20180122080712 35 24 11.0 20.0 0.00 0.09 0.04 96 996.7
20180122080213 35 63 14.0 21.0 0.00 0.09 0.04 96 996.9
20180122075718 35 58 12.0 19.0 0.00 0.09 0.04 96 997.2
20180122075224 35 29 10.0 19.0 0.01 0.09 0.04 96 997.4
20180122074726 35 39 11.0 19.0 0.01 0.09 0.04 96 997.7
20180122074231 35 48 14.0 21.0 0.01 0.09 0.04 96 997.8
20180122073716 35 18 9.0 20.0 0.02 0.09 0.04 96 997.9
20180122073221 35 38 11.0 19.0 0.03 0.09 0.04 96 998.1
20180122072712 35 21 8.0 17.0 0.04 0.09 0.04 96 998.6
20180122072215 36 54 11.0 17.0 0.04 0.09 0.04 96 998.9
20180122071720 36 355 10.0 19.0 0.04 0.09 0.04 96 999.0
20180122071224 36 49 12.0 19.0 0.04 0.09 0.04 96 999.3
20180122070730 36 56 9.0 16.0 0.04 0.09 0.04 96 999.6
20180122070209 36 28 8.0 18.0 0.04 0.09 0.04 96 999.7
20180122065716 36 47 9.0 23.0 0.04 0.09 0.04 96 999.7
20180122065221 36 32 12.0 23.0 0.03 0.08 0.03 96 999.3
20180122064724 36 317 13.0 19.0 0.03 0.08 0.03 96 999.5
20180122064229 36 51 6.0 10.0 0.03 0.08 0.03 96 1000.7
20180122063714 36 9 4.0 8.0 0.02 0.07 0.02 96 1001.4
20180122063223 36 355 1.0 8.0 0.01 0.06 0.01 96 1001.6
20180122062729 36 22 2.0 7.0 0.00 0.05 0.00 96 1001.4
20180122062214 36 317 1.0 9.0 0.00 0.05 0.00 96 1001.7
20180122061719 36 280 3.0 18.0 0.00 0.05 0.00 96 1001.7
20180122061223 36 55 7.0 18.0 0.00 0.05 0.00 96 1001.3
20180122060709 36 360 12.0 18.0 0.00 0.05 0.00 96 1000.9
20180122060213 36 62 11.0 20.0 0.00 0.05 0.00 96 1000.8
20180122055718 36 56 11.0 20.0 0.01 0.05 0.05 96 1000.7
20180122055223 36 28 10.0 21.0 0.02 0.05 0.05 96 1000.6
20180122054728 36 93 11.0 18.0 0.02 0.05 0.05 96 1000.7